Total_Precipitation_Accumulation
0.00 0.00 0.00 0.01 0.01 0.01 0.01 0.01 0.00 0.00 0.00 0.00 0.00 0.00 0.00 0.00 0.00 0.00 0.00 0.00 0.00 0.00 0.00 0.01 0.01 0.02 0.04 0.06 0.08 0.09 0.09 0.09 0.09 0.09 0.09 0.10 0.10 0.11 0.12 0.14 0.14 0.14 0.15
0.00 0.00 0.01 0.01 0.01 0.01 0.01 0.00 0.00 0.00 0.00 0.00 0.00 0.00 0.00 0.00 0.00 0.00 0.00 0.00 0.00 0.00 0.00 0.01 0.01 0.03 0.04 0.06 0.07 0.07 0.08 0.08 0.08 0.09 0.09 0.10 0.11 0.12 0.13 0.15 0.15 0.16 0.16
0.00 0.00 0.01 0.01 0.00 0.00 0.00 0.00 0.00 0.00 0.00 0.00 0.00 0.00 0.00 0.00 0.00 0.00 0.00 0.00 0.00 0.00 0.00 0.00 0.01 0.02 0.03 0.04 0.05 0.06 0.08 0.09 0.09 0.09 0.10 0.10 0.11 0.12 0.14 0.16 0.17 0.18 0.19
0.00 0.00 0.00 0.00 0.00 0.00 0.00 0.00 0.00 0.00 0.00 0.00 0.00 0.00 0.00 0.00 0.00 0.00 0.00 0.00 0.00 0.00 0.00 0.00 0.01 0.01 0.01 0.02 0.02 0.04 0.06 0.09 0.10 0.11 0.12 0.12 0.12 0.13 0.15 0.18 0.21 0.23 0.25
0.00 0.00 0.00 0.00 0.00 0.00 0.00 0.00 0.00 0.00 0.00 0.00 0.00 0.00 0.00 0.00 0.00 0.00 0.00 0.00 0.00 0.00 0.00 0.00 0.00 0.00 0.01 0.01 0.02 0.03 0.07 0.11 0.14 0.15 0.15 0.16 0.17 0.19 0.21 0.24 0.26 0.29 0.31
0.00 0.00 0.00 0.00 0.00 0.00 0.00 0.00 0.00 0.00 0.00 0.00 0.00 0.00 0.00 0.00 0.00 0.00 0.00 0.00 0.00 0.00 0.00 0.00 0.00 0.00 0.00 0.02 0.05 0.07 0.08 0.10 0.14 0.16 0.16 0.17 0.19 0.21 0.24 0.28 0.30 0.31 0.33
0.02 0.01 0.01 0.00 0.00 0.00 0.00 0.00 0.00 0.00 0.00 0.00 0.00 0.00 0.00 0.00 0.00 0.00 0.00 0.00 0.00 0.00 0.00 0.00 0.00 0.01 0.03 0.05 0.08 0.08 0.08 0.08 0.11 0.15 0.17 0.18 0.20 0.23 0.27 0.31 0.33 0.36 0.37
0.08 0.04 0.02 0.01 0.01 0.00 0.00 0.00 0.00 0.00 0.00 0.00 0.00 0.00 0.00 0.00 0.00 0.00 0.00 0.00 0.00 0.00 0.00 0.00 0.01 0.02 0.04 0.06 0.06 0.06 0.05 0.05 0.06 0.09 0.13 0.14 0.16 0.19 0.24 0.28 0.32 0.37 0.41
0.16 0.12 0.08 0.06 0.04 0.02 0.01 0.01 0.01 0.01 0.00 0.00 0.00 0.00 0.00 0.00 0.00 0.00 0.00 0.00 0.00 0.00 0.00 0.00 0.00 0.00 0.00 0.01 0.01 0.01 0.01 0.02 0.02 0.03 0.06 0.10 0.13 0.17 0.22 0.28 0.34 0.40 0.45
0.22 0.20 0.15 0.10 0.07 0.05 0.04 0.03 0.03 0.02 0.01 0.01 0.00 0.00 0.00 0.00 0.00 0.00 0.00 0.00 0.00 0.00 0.00 0.00 0.00 0.00 0.00 0.00 0.00 0.00 0.02 0.04 0.04 0.06 0.10 0.14 0.19 0.25 0.33 0.42 0.49 0.56 0.61
0.19 0.20 0.17 0.15 0.11 0.09 0.09 0.08 0.05 0.04 0.03 0.02 0.01 0.00 0.00 0.00 0.00 0.00 0.00 0.00 0.00 0.00 0.00 0.00 0.00 0.00 0.00 0.00 0.00 0.02 0.04 0.05 0.06 0.08 0.11 0.16 0.24 0.35 0.45 0.54 0.63 0.74 0.83
0.16 0.17 0.18 0.17 0.15 0.14 0.13 0.11 0.08 0.06 0.04 0.02 0.01 0.01 0.00 0.00 0.00 0.00 0.00 0.00 0.00 0.00 0.00 0.00 0.00 0.00 0.00 0.00 0.01 0.02 0.01 0.01 0.01 0.01 0.05 0.14 0.23 0.30 0.38 0.45 0.53 0.65 0.82
0.12 0.13 0.15 0.17 0.18 0.19 0.17 0.14 0.10 0.07 0.05 0.03 0.02 0.01 0.00 0.00 0.00 0.00 0.00 0.00 0.00 0.00 0.00 0.00 0.00 0.00 0.00 0.00 0.00 0.00 0.00 0.00 0.00 0.00 0.03 0.08 0.12 0.15 0.16 0.18 0.23 0.32 0.42
0.15 0.17 0.18 0.20 0.20 0.20 0.18 0.15 0.13 0.09 0.06 0.04 0.02 0.01 0.01 0.00 0.00 0.00 0.00 0.00 0.00 0.00 0.00 0.00 0.00 0.00 0.00 0.00 0.00 0.00 0.00 0.00 0.00 0.00 0.02 0.05 0.06 0.07 0.09 0.12 0.16 0.21 0.27
0.14 0.15 0.17 0.19 0.19 0.18 0.17 0.16 0.13 0.10 0.07 0.04 0.03 0.02 0.01 0.01 0.00 0.00 0.00 0.00 0.00 0.01 0.00 0.00 0.00 0.00 0.00 0.00 0.00 0.00 0.00 0.00 0.00 0.02 0.03 0.04 0.04 0.07 0.10 0.13 0.16 0.18 0.21
0.10 0.13 0.15 0.16 0.16 0.16 0.15 0.13 0.11 0.08 0.06 0.05 0.04 0.04 0.03 0.02 0.02 0.02 0.02 0.02 0.02 0.02 0.01 0.01 0.00 0.00 0.00 0.00 0.00 0.00 0.00 0.00 0.00 0.01 0.02 0.05 0.07 0.08 0.10 0.12 0.15 0.17 0.20
0.09 0.10 0.12 0.13 0.13 0.12 0.10 0.09 0.08 0.07 0.07 0.07 0.07 0.08 0.08 0.07 0.07 0.07 0.06 0.05 0.04 0.03 0.02 0.01 0.00 0.00 0.00 0.00 0.00 0.00 0.00 0.00 0.01 0.02 0.03 0.04 0.06 0.08 0.10 0.13 0.15 0.18 0.21
0.07 0.07 0.08 0.08 0.08 0.07 0.07 0.07 0.07 0.07 0.08 0.09 0.10 0.11 0.12 0.12 0.11 0.10 0.08 0.07 0.05 0.04 0.03 0.03 0.00 0.00 0.00 0.00 0.00 0.00 0.00 0.01 0.01 0.01 0.02 0.03 0.05 0.07 0.08 0.11 0.15 0.20 0.25
0.05 0.04 0.04 0.04 0.04 0.05 0.05 0.07 0.07 0.08 0.09 0.11 0.12 0.13 0.13 0.13 0.13 0.11 0.09 0.06 0.04 0.03 0.03 0.04 0.02 0.00 0.00 0.01 0.01 0.01 0.00 0.00 0.00 0.00 0.00 0.01 0.02 0.06 0.11 0.15 0.19 0.21 0.22
0.04 0.03 0.02 0.02 0.02 0.03 0.04 0.05 0.07 0.10 0.12 0.14 0.15 0.15 0.15 0.14 0.12 0.09 0.06 0.05 0.04 0.03 0.03 0.04 0.06 0.06 0.05 0.03 0.03 0.02 0.01 0.00 0.00 0.00 0.01 0.02 0.04 0.08 0.10 0.10 0.09 0.07 0.07
0.03 0.03 0.04 0.04 0.05 0.06 0.08 0.11 0.14 0.16 0.18 0.19 0.18 0.17 0.14 0.11 0.07 0.05 0.04 0.04 0.04 0.06 0.11 0.17 0.18 0.14 0.08 0.04 0.02 0.01 0.01 0.02 0.01 0.01 0.02 0.03 0.03 0.02 0.01 0.01 0.01 0.02 0.05
0.06 0.07 0.08 0.11 0.15 0.19 0.26 0.27 0.24 0.23 0.21 0.18 0.15 0.11 0.08 0.05 0.03 0.02 0.03 0.05 0.09 0.16 0.25 0.31 0.25 0.14 0.04 0.01 0.01 0.04 0.08 0.12 0.08 0.01 0.04 0.02 0.01 0.01 0.00 0.01 0.02 0.06 0.10
0.18 0.20 0.23 0.26 0.30 0.34 0.37 0.32 0.26 0.19 0.15 0.11 0.08 0.05 0.03 0.02 0.01 0.01 0.01 0.05 0.11 0.17 0.21 0.19 0.11 0.04 0.02 0.03 0.11 0.18 0.16 0.17 0.11 0.02 0.05 0.04 0.02 0.02 0.01 0.02 0.03 0.05 0.07
0.37 0.41 0.44 0.44 0.42 0.39 0.33 0.24 0.16 0.11 0.07 0.04 0.02 0.01 0.01 0.00 0.01 0.03 0.07 0.14 0.10 0.07 0.04 0.03 0.03 0.03 0.05 0.07 0.14 0.23 0.20 0.14 0.06 0.02 0.04 0.06 0.02 0.02 0.01 0.01 0.02 0.03 0.06
0.52 0.50 0.45 0.38 0.30 0.23 0.17 0.10 0.06 0.04 0.02 0.01 0.00 0.00 0.01 0.01 0.03 0.11 0.17 0.17 0.08 0.02 0.00 0.02 0.05 0.06 0.05 0.05 0.05 0.14 0.20 0.22 0.13 0.02 0.02 0.04 0.03 0.02 0.02 0.01 0.01 0.03 0.05
0.40 0.31 0.21 0.14 0.08 0.05 0.03 0.01 0.01 0.00 0.00 0.00 0.00 0.00 0.01 0.03 0.08 0.16 0.15 0.13 0.05 0.02 0.04 0.03 0.01 0.00 0.00 0.00 0.02 0.09 0.27 0.49 0.35 0.16 0.01 0.08 0.12 0.15 0.22 0.03 0.01 0.01 0.02